When you browse on this site, cookies collect data to enhance your experience and personalize the content and advertising you see.
Visit our Privacy Policy to learn more. By continuing to use the site, you agree to this use of cookies and data.

Meteo orario Plavni

Oggi, 4 Agosto, Martedi

Tempo Temperatura Precipitazioni Vento Pressione Umidità
00:00 +18°C° 0 mm 2 m/s 755 mm Hg 61%
01:00 +17°C° 0 mm 2 m/s 755 mm Hg 63%
02:00 +16°C° 0 mm 2 m/s 755 mm Hg 67%
03:00 +16°C° 0 mm 2 m/s 755 mm Hg 69%
04:00 +16°C° 0 mm 2 m/s 755 mm Hg 71%
05:00 +16°C° 0 mm 2 m/s 755 mm Hg 73%
06:00 +18°C° 0 mm 3 m/s 755 mm Hg 66%
07:00 +21°C° 0 mm 3 m/s 755 mm Hg 60%
08:00 +24°C° 0 mm 3 m/s 755 mm Hg 52%
09:00 +26°C° 0 mm 3 m/s 755 mm Hg 47%
10:00 +27°C° 0 mm 3 m/s 755 mm Hg 42%
11:00 +29°C° 0 mm 3 m/s 755 mm Hg 37%
12:00 +29°C° 0 mm 2 m/s 754 mm Hg 34%
13:00 +30°C° 0 mm 2 m/s 754 mm Hg 32%
14:00 +31°C° 0 mm 2 m/s 754 mm Hg 28%
15:00 +31°C° 0 mm 2 m/s 754 mm Hg 29%
16:00 +31°C° 0 mm 3 m/s 753 mm Hg 30%
17:00 +31°C° 0 mm 3 m/s 753 mm Hg 32%
18:00 +28°C° 0 mm 3 m/s 753 mm Hg 38%
19:00 +26°C° 0 mm 4 m/s 753 mm Hg 45%
20:00 +23°C° 0 mm 4 m/s 754 mm Hg 51%
21:00 +22°C° 0 mm 4 m/s 754 mm Hg 54%
22:00 +21°C° 0 mm 4 m/s 754 mm Hg 56%
23:00 +20°C° 0 mm 3 m/s 754 mm Hg 59%

Domani, 5 Agosto, Mercoledi

Tempo Temperatura Precipitazioni Vento Pressione Umidità
00:00 +19°C° 0 mm 3 m/s 754 mm Hg 60%
01:00 +19°C° 0 mm 3 m/s 754 mm Hg 62%
02:00 +18°C° 0 mm 3 m/s 754 mm Hg 64%
03:00 +18°C° 0 mm 3 m/s 754 mm Hg 64%
04:00 +17°C° 0 mm 3 m/s 754 mm Hg 65%
05:00 +17°C° 0 mm 3 m/s 755 mm Hg 66%
06:00 +19°C° 0 mm 3 m/s 755 mm Hg 60%
07:00 +22°C° 0 mm 3 m/s 755 mm Hg 54%
08:00 +25°C° 0 mm 3 m/s 755 mm Hg 47%
09:00 +27°C° 0 mm 3 m/s 755 mm Hg 43%
10:00 +28°C° 0 mm 3 m/s 755 mm Hg 39%
11:00 +30°C° 0 mm 3 m/s 755 mm Hg 35%
12:00 +30°C° 0 mm 3 m/s 755 mm Hg 33%
13:00 +31°C° 0 mm 3 m/s 755 mm Hg 32%
14:00 +32°C° 0 mm 4 m/s 755 mm Hg 30%
15:00 +32°C° 0 mm 4 m/s 755 mm Hg 32%
16:00 +32°C° 0 mm 4 m/s 755 mm Hg 34%
17:00 +30°C° 0 mm 4 m/s 755 mm Hg 35%
18:00 +28°C° 0 mm 4 m/s 755 mm Hg 42%
19:00 +26°C° 0 mm 3 m/s 755 mm Hg 49%
20:00 +22°C° 0 mm 3 m/s 756 mm Hg 56%
21:00 +22°C° 0 mm 3 m/s 756 mm Hg 59%
22:00 +21°C° 0 mm 3 m/s 756 mm Hg 62%
23:00 +20°C° 0 mm 3 m/s 756 mm Hg 65%

Dopodomani, 6 Agosto, Giovedi

Tempo Temperatura Precipitazioni Vento Pressione Umidità
00:00 +19°C° 0 mm 3 m/s 756 mm Hg 68%
01:00 +19°C° 0 mm 2 m/s 756 mm Hg 71%
02:00 +18°C° 0 mm 2 m/s 756 mm Hg 73%
03:00 +18°C° 0 mm 2 m/s 757 mm Hg 75%
04:00 +18°C° 0 mm 2 m/s 757 mm Hg 77%
05:00 +18°C° 0 mm 3 m/s 757 mm Hg 78%
06:00 +20°C° 0 mm 3 m/s 757 mm Hg 70%
07:00 +22°C° 0 mm 3 m/s 757 mm Hg 62%
08:00 +26°C° 0 mm 4 m/s 757 mm Hg 54%
09:00 +27°C° 0 mm 4 m/s 757 mm Hg 49%
10:00 +29°C° 0 mm 4 m/s 757 mm Hg 44%
11:00 +30°C° 0 mm 5 m/s 757 mm Hg 39%
12:00 +32°C° 0 mm 5 m/s 757 mm Hg 38%
13:00 +32°C° 0 mm 5 m/s 757 mm Hg 37%
14:00 +33°C° 0 mm 5 m/s 757 mm Hg 36%
15:00 +32°C° 0 mm 5 m/s 757 mm Hg 38%
16:00 +32°C° 0 mm 5 m/s 757 mm Hg 40%
17:00 +30°C° 0 mm 5 m/s 757 mm Hg 42%
18:00 +28°C° 0 mm 4 m/s 757 mm Hg 47%
19:00 +27°C° 0 mm 4 m/s 757 mm Hg 53%
20:00 +25°C° 0 mm 3 m/s 757 mm Hg 59%
21:00 +24°C° 0 mm 3 m/s 757 mm Hg 62%
22:00 +22°C° 0 mm 3 m/s 757 mm Hg 65%
23:00 +21°C° 0 mm 3 m/s 757 mm Hg 68%

7 Agosto, Venerdi

Tempo Temperatura Precipitazioni Vento Pressione Umidità
00:00 +21°C° 0 mm 3 m/s 757 mm Hg 70%
01:00 +20°C° 0 mm 3 m/s 757 mm Hg 72%
02:00 +20°C° 0 mm 3 m/s 757 mm Hg 73%
03:00 +19°C° 0 mm 3 m/s 757 mm Hg 75%
04:00 +19°C° 0 mm 3 m/s 758 mm Hg 77%
05:00 +19°C° 0 mm 3 m/s 758 mm Hg 78%
06:00 +21°C° 0 mm 3 m/s 758 mm Hg 70%
07:00 +24°C° 0 mm 3 m/s 758 mm Hg 62%
08:00 +27°C° 0 mm 4 m/s 758 mm Hg 55%
09:00 +28°C° 0 mm 4 m/s 758 mm Hg 50%
10:00 +30°C° 0 mm 4 m/s 758 mm Hg 45%
11:00 +32°C° 0 mm 5 m/s 758 mm Hg 40%
12:00 +32°C° 0 mm 5 m/s 757 mm Hg 41%
13:00 +33°C° 0 mm 5 m/s 757 mm Hg 42%
14:00 +33°C° 0 mm 5 m/s 757 mm Hg 43%
15:00 +32°C° 0 mm 5 m/s 756 mm Hg 46%
16:00 +32°C° 0 mm 5 m/s 756 mm Hg 49%
17:00 +30°C° 0 mm 6 m/s 756 mm Hg 51%
18:00 +28°C° 0 mm 6 m/s 756 mm Hg 53%
19:00 +26°C° 0 mm 5 m/s 756 mm Hg 55%
20:00 +23°C° 0 mm 5 m/s 757 mm Hg 57%
21:00 +22°C° 0 mm 5 m/s 757 mm Hg 62%
22:00 +21°C° 0 mm 4 m/s 757 mm Hg 68%
23:00 +20°C° 0 mm 4 m/s 757 mm Hg 73%

8 Agosto, Sabato

Tempo Temperatura Precipitazioni Vento Pressione Umidità
00:00 +19°C° 0 mm 4 m/s 757 mm Hg 75%
01:00 +19°C° 0 mm 4 m/s 757 mm Hg 76%
02:00 +18°C° 0 mm 4 m/s 756 mm Hg 78%
03:00 +18°C° 0 mm 4 m/s 756 mm Hg 80%
04:00 +17°C° 0 mm 4 m/s 756 mm Hg 81%
05:00 +17°C° 0 mm 4 m/s 756 mm Hg 82%
06:00 +19°C° 0 mm 4 m/s 756 mm Hg 74%
07:00 +21°C° 0 mm 5 m/s 756 mm Hg 65%
08:00 +23°C° 0 mm 6 m/s 756 mm Hg 56%
09:00 +24°C° 0 mm 6 m/s 756 mm Hg 52%
10:00 +26°C° 0 mm 6 m/s 756 mm Hg 47%
11:00 +28°C° 0 mm 6 m/s 756 mm Hg 43%
12:00 +28°C° 0 mm 6 m/s 755 mm Hg 42%
13:00 +29°C° 0 mm 6 m/s 755 mm Hg 41%
14:00 +29°C° 0 mm 6 m/s 754 mm Hg 40%
15:00 +29°C° 0 mm 6 m/s 754 mm Hg 41%
16:00 +28°C° 0 mm 6 m/s 754 mm Hg 43%
17:00 +28°C° 0 mm 6 m/s 753 mm Hg 44%
18:00 +26°C° 0 mm 5 m/s 753 mm Hg 50%
19:00 +23°C° 0 mm 5 m/s 754 mm Hg 56%
20:00 +22°C° 0 mm 4 m/s 754 mm Hg 62%
21:00 +21°C° 0 mm 4 m/s 754 mm Hg 65%
22:00 +20°C° 0 mm 4 m/s 754 mm Hg 68%
23:00 +19°C° 0 mm 4 m/s 753 mm Hg 71%

9 Agosto, Domenica

Tempo Temperatura Precipitazioni Vento Pressione Umidità
00:00 +18°C° 0 mm 4 m/s 753 mm Hg 74%
01:00 +17°C° 0 mm 4 m/s 753 mm Hg 77%
02:00 +17°C° 0 mm 4 m/s 753 mm Hg 79%
03:00 +16°C° 0 mm 3 m/s 753 mm Hg 80%
04:00 +16°C° 0 mm 3 m/s 753 mm Hg 82%
05:00 +14°C° 0 mm 3 m/s 753 mm Hg 83%
06:00 +18°C° 0 mm 4 m/s 753 mm Hg 73%
07:00 +20°C° 0 mm 4 m/s 753 mm Hg 63%
08:00 +22°C° 0 mm 4 m/s 753 mm Hg 53%
09:00 +25°C° 0 mm 4 m/s 753 mm Hg 48%
10:00 +26°C° 0 mm 5 m/s 753 mm Hg 43%
11:00 +28°C° 0 mm 5 m/s 753 mm Hg 37%
12:00 +28°C° 0 mm 5 m/s 752 mm Hg 35%
13:00 +29°C° 0 mm 5 m/s 752 mm Hg 33%
14:00 +29°C° 0 mm 5 m/s 752 mm Hg 31%
15:00 +29°C° 0 mm 5 m/s 752 mm Hg 32%
16:00 +28°C° 0 mm 5 m/s 751 mm Hg 33%
17:00 +28°C° 0 mm 5 m/s 751 mm Hg 34%
18:00 +26°C° 0 mm 4 m/s 752 mm Hg 40%
19:00 +23°C° 0 mm 4 m/s 752 mm Hg 46%
20:00 +21°C° 0 mm 3 m/s 752 mm Hg 52%
21:00 +20°C° 0 mm 3 m/s 752 mm Hg 55%
22:00 +19°C° 0 mm 3 m/s 752 mm Hg 58%
23:00 +18°C° 0 mm 3 m/s 752 mm Hg 61%
Mostrare altro